Paynesville, MN

12:38 AM CDT on May 23, 2017 (GMT -0500)
Paynesville

Weather History for KPEX - September, 2012

Change the Weather History Date:

Sunday, September 30, 2012

  Actual Average (KLJF) Record (KLJF)
Temperature  
Mean Temperature 61 °F -  
Max Temperature 81 °F 70 °F 86 °F (1952)
Min Temperature 41 °F 43 °F 25 °F (1990)
Degree Days  
Heating Degree Days 4    
Growing Degree Days 11 (Base 50)    
Moisture  
Dew Point 38 °F    
Average Humidity 49    
Maximum Humidity 85    
Minimum Humidity 17    
Precipitation  
Precipitation 0.00 in - - ()
Sea Level Pressure  
Sea Level Pressure 29.96 in    
Wind  
Wind Speed 2 mph (SSE)    
Max Wind Speed 9 mph    
Max Gust Speed -    
Visibility 10 miles    
Events      
Averages and records for this station are not official NWS values.
T = Trace of Precipitation, MM = Missing Value Source: NWS Daily Summary

Daily Weather History Graph

Daily Weather History Graph

Search for Another Location

Airport or City:

Trip Planner

Search our weather history database for the weather conditions in past years. The results will help you decide how hot, cold, wet, or windy it might be!

Date:

Astronomy

Sep. 30, 2012 Rise Set
Actual Time 7:16 AM CDT 7:00 PM CDT
Civil Twilight 6:47 AM CDT 7:29 PM CDT
Nautical Twilight 6:12 AM CDT 8:03 PM CDT
Astronomical Twilight 5:37 AM CDT 8:38 PM CDT
Moon 6:59 PM CDT (9/30) 7:52 AM CDT (9/30)
Length of Visible Light 12h 42m
Length of Day
11h 43m
Full, 100% of the Moon is Illuminated
Sep 30
Full
Oct 8
Last Quarter
Oct 15
New
Oct 21
First Quarter
Oct 29
Full

Hourly Weather History & Observations

Time (CDT) Temp. Dew Point Humidity Pressure Visibility Wind Dir Wind Speed Gust Speed Precip Events Conditions
12:13 AM 51.8 °F 39.6 °F 63% 30.04 in 10.0 mi Calm Calm - N/A   Clear
12:34 AM 51.1 °F 38.1 °F 61% 30.04 in 10.0 mi Calm Calm - N/A   Clear
12:53 AM 48.0 °F 38.3 °F 69% 30.04 in 10.0 mi Calm Calm - N/A   Clear
1:13 AM 49.3 °F 38.5 °F 66% 30.04 in 10.0 mi Calm Calm - N/A   Clear
1:34 AM 48.7 °F 37.2 °F 64% 30.04 in 10.0 mi Calm Calm - N/A   Clear
1:53 AM 47.5 °F 37.4 °F 68% 30.04 in 10.0 mi Calm Calm - N/A   Clear
2:13 AM 47.3 °F 39.4 °F 74% 30.04 in 10.0 mi Calm Calm - N/A   Clear
2:34 AM 46.6 °F 35.4 °F 65% 30.03 in 10.0 mi Calm Calm - N/A   Clear
2:54 AM 46.6 °F 38.5 °F 73% 30.02 in 10.0 mi Calm Calm - N/A   Clear
3:13 AM 45.9 °F 39.2 °F 78% 30.02 in 10.0 mi Calm Calm - N/A   Clear
3:33 AM 46.2 °F 39.4 °F 77% 30.02 in 10.0 mi Calm Calm - N/A   Clear
3:54 AM 45.5 °F 39.4 °F 79% 30.02 in 10.0 mi Calm Calm - N/A   Clear
4:14 AM 45.7 °F 39.2 °F 78% 30.01 in 10.0 mi Calm Calm - N/A   Clear
4:53 AM 44.1 °F 37.4 °F 77% 30.01 in 10.0 mi Calm Calm - N/A   Clear
5:14 AM 44.2 °F 39.2 °F 82% 30.01 in 10.0 mi Calm Calm - N/A   Clear
5:33 AM 43.7 °F 39.0 °F 84% 30.01 in 10.0 mi Calm Calm - N/A   Clear
5:53 AM 44.1 °F 39.6 °F 84% 30.01 in 10.0 mi Calm Calm - N/A   Clear
6:14 AM 45.1 °F 40.3 °F 83% 30.00 in 10.0 mi Calm Calm - N/A   Clear
6:33 AM 43.5 °F 39.4 °F 85% 30.01 in 10.0 mi Calm Calm - N/A   Clear
6:53 AM 43.2 °F 38.5 °F 84% 30.01 in 10.0 mi Calm Calm - N/A   Clear
7:14 AM 43.0 °F 38.1 °F 83% 30.01 in 10.0 mi Calm Calm - N/A   Clear
7:34 AM 41.2 °F 36.5 °F 83% 30.01 in 10.0 mi Calm Calm - N/A   Clear
7:53 AM 42.1 °F 37.0 °F 82% 30.01 in 10.0 mi Calm Calm - N/A   Clear
8:14 AM 43.9 °F 38.3 °F 81% 30.01 in 10.0 mi Calm Calm - N/A   Clear
8:34 AM 48.0 °F 41.7 °F 79% 30.01 in 10.0 mi Calm Calm - N/A   Clear
8:53 AM 52.9 °F 43.0 °F 69% 30.00 in 10.0 mi Calm Calm - N/A   Clear
9:14 AM 57.0 °F 42.3 °F 58% 30.00 in 10.0 mi ESE 4.6 mph - N/A   Clear
9:34 AM 58.8 °F 42.3 °F 54% 30.00 in 10.0 mi SE 5.8 mph - N/A   Clear
9:53 AM 59.4 °F 41.9 °F 52% 30.00 in 10.0 mi SE 4.6 mph - N/A   Clear
10:13 AM 61.0 °F 42.4 °F 51% 30.00 in 10.0 mi SE 3.5 mph - N/A   Clear
10:34 AM 63.7 °F 42.1 °F 45% 29.99 in 10.0 mi SSE 3.5 mph - N/A   Clear
10:53 AM 65.8 °F 41.9 °F 42% 29.99 in 10.0 mi SSE 3.5 mph - N/A   Clear
11:13 AM 68.2 °F 41.0 °F 37% 29.99 in 10.0 mi SE 3.5 mph - N/A   Clear
11:34 AM 70.9 °F 40.3 °F 33% 29.98 in 10.0 mi Calm Calm - N/A   Clear
11:53 AM 72.3 °F 39.4 °F 30% 29.98 in 10.0 mi SSE 3.5 mph - N/A   Clear
12:13 PM 74.3 °F 37.0 °F 26% 29.97 in 10.0 mi SSE 4.6 mph - N/A   Clear
12:34 PM 74.8 °F 35.2 °F 24% 29.97 in 10.0 mi SSE 3.5 mph - N/A   Clear
12:54 PM 77.2 °F 36.7 °F 23% 29.97 in 10.0 mi SSE 5.8 mph - N/A   Clear
1:13 PM 77.2 °F 36.9 °F 23% 29.96 in 10.0 mi SSE 6.9 mph - N/A   Clear
1:33 PM 78.3 °F 36.7 °F 22% 29.95 in 10.0 mi SE 5.8 mph - N/A   Clear
1:54 PM 79.5 °F 36.0 °F 21% 29.94 in 10.0 mi ESE 4.6 mph - N/A   Clear
2:13 PM 79.7 °F 35.6 °F 20% 29.93 in 10.0 mi ESE 6.9 mph - N/A   Clear
2:33 PM 79.9 °F 35.2 °F 20% 29.93 in 10.0 mi ESE 5.8 mph - N/A   Clear
2:54 PM 81.1 °F 32.4 °F 17% 29.92 in 10.0 mi SSW 6.9 mph - N/A   Clear
3:13 PM 81.1 °F 32.2 °F 17% 29.92 in 10.0 mi SW 8.1 mph - N/A   Clear
3:33 PM 81.3 °F 33.6 °F 18% 29.91 in 10.0 mi SSW 5.8 mph - N/A   Clear
3:54 PM 81.3 °F 32.2 °F 17% 29.91 in 10.0 mi SW 9.2 mph - N/A   Clear
4:14 PM 81.5 °F 32.5 °F 17% 29.90 in 10.0 mi SW 4.6 mph - N/A   Clear
4:33 PM 81.5 °F 33.3 °F 18% 29.90 in 10.0 mi South 8.1 mph - N/A   Clear
4:54 PM 81.5 °F 33.8 °F 18% 29.90 in 10.0 mi SW 8.1 mph - N/A   Clear
5:14 PM 80.6 °F 32.9 °F 18% 29.89 in 10.0 mi SSW 6.9 mph - N/A   Clear
5:33 PM 80.8 °F 33.8 °F 18% 29.89 in 10.0 mi SSW 4.6 mph - N/A   Clear
5:54 PM 80.2 °F 32.9 °F 18% 29.89 in 10.0 mi SSW 5.8 mph - N/A   Clear
6:14 PM 79.2 °F 34.0 °F 19% 29.89 in 10.0 mi Calm Calm - N/A   Clear
6:33 PM 77.5 °F 34.3 °F 21% 29.88 in 10.0 mi South 3.5 mph - N/A   Clear
7:14 PM 71.6 °F 40.1 °F 32% 29.88 in 10.0 mi SE 6.9 mph - N/A   Clear
7:33 PM 70.7 °F 40.6 °F 34% 29.88 in 10.0 mi SE 6.9 mph - N/A   Clear
8:13 PM 68.0 °F 41.2 °F 38% 29.88 in 10.0 mi SSE 4.6 mph - N/A   Scattered Clouds
8:33 PM 66.9 °F 41.2 °F 39% 29.88 in 10.0 mi SSE 5.8 mph - N/A   Clear
8:54 PM 66.4 °F 41.4 °F 40% 29.88 in 10.0 mi SSE 5.8 mph - N/A   Scattered Clouds
9:13 PM 64.9 °F 41.7 °F 43% 29.88 in 10.0 mi SSE 4.6 mph - N/A   Scattered Clouds
9:33 PM 60.6 °F 40.8 °F 48% 29.88 in 10.0 mi Calm Calm - N/A   Scattered Clouds
9:54 PM 61.9 °F 41.5 °F 47% 29.88 in 10.0 mi Calm Calm - N/A   Clear
10:14 PM 62.6 °F 40.1 °F 44% 29.88 in 10.0 mi Calm Calm - N/A   Clear
10:33 PM 61.9 °F 39.2 °F 43% 29.88 in 10.0 mi Calm Calm - N/A   Clear
11:14 PM 61.9 °F 38.5 °F 42% 29.87 in 10.0 mi South 3.5 mph - N/A   Clear
11:34 PM 58.5 °F 37.6 °F 46% 29.87 in 10.0 mi Calm Calm - N/A   Clear